TimeCST,TemperatureF,Dew PointF,Humidity,Sea Level PressureIn,VisibilityMPH,Wind Direction,Wind SpeedMPH,Gust SpeedMPH,PrecipitationIn,Events,Conditions,WindDirDegrees,DateUTC
12:53 AM,-5.1,-8.0,87,30.29,6.0,NNW,8.1,-,N/A,,Clear,330,2014-02-09 06:53:00
1:53 AM,-2.0,-7.1,79,30.30,10.0,NNW,9.2,-,N/A,,Clear,330,2014-02-09 07:53:00
2:28 AM,-2.9,-8.0,79,30.22,10.0,NNW,10.4,-,N/A,,Mostly Cloudy,340,2014-02-09 08:28:00
2:49 AM,-0.4,-7.6,72,30.22,10.0,NNW,15.0,-,N/A,,Scattered Clouds,340,2014-02-09 08:49:00
2:53 AM,-0.0,-6.0,76,30.31,10.0,NNW,15.0,-,N/A,,Partly Cloudy,340,2014-02-09 08:53:00
3:53 AM,-7.1,-11.9,79,30.34,10.0,NW,11.5,-,N/A,,Clear,310,2014-02-09 09:53:00
4:53 AM,-11.9,-16.1,82,30.34,10.0,NW,11.5,-,N/A,,Clear,310,2014-02-09 10:53:00
5:53 AM,-11.0,-16.1,78,30.35,10.0,NW,10.4,-,N/A,,Clear,320,2014-02-09 11:53:00
6:53 AM,-15.0,-20.9,75,30.37,10.0,NW,10.4,-,N/A,,Clear,310,2014-02-09 12:53:00
7:53 AM,-9.0,-15.0,75,30.38,10.0,NW,12.7,-,N/A,,Clear,320,2014-02-09 13:53:00
8:53 AM,-6.0,-13.0,72,30.40,10.0,NNW,9.2,-,N/A,,Clear,330,2014-02-09 14:53:00
9:53 AM,-0.9,-9.0,69,30.42,10.0,NNW,13.8,-,N/A,,Clear,330,2014-02-09 15:53:00
10:53 AM,1.0,-9.0,63,30.43,10.0,North,15.0,-,N/A,,Clear,360,2014-02-09 16:53:00
11:53 AM,3.0,-7.1,63,30.44,10.0,North,13.8,-,N/A,,Clear,350,2014-02-09 17:53:00
12:53 PM,3.9,-6.0,64,30.45,10.0,NW,12.7,-,N/A,,Clear,320,2014-02-09 18:53:00
1:53 PM,3.9,-5.1,66,30.44,10.0,NW,9.2,-,N/A,,Clear,310,2014-02-09 19:53:00
2:53 PM,3.9,-5.1,66,30.44,10.0,NW,12.7,-,N/A,,Clear,310,2014-02-09 20:53:00
3:53 PM,1.9,-6.0,69,30.44,10.0,NW,10.4,-,N/A,,Clear,310,2014-02-09 21:53:00
4:53 PM,-0.0,-7.1,72,30.46,10.0,WNW,9.2,-,N/A,,Clear,290,2014-02-09 22:53:00
5:53 PM,-4.0,-9.0,79,30.48,10.0,West,6.9,-,N/A,,Clear,260,2014-02-09 23:53:00
6:53 PM,-11.0,-16.1,78,30.51,10.0,West,9.2,-,N/A,,Clear,270,2014-02-10 00:53:00
7:53 PM,-9.0,-14.1,79,30.51,10.0,West,10.4,-,N/A,,Clear,280,2014-02-10 01:53:00
8:53 PM,-9.0,-15.0,75,30.52,10.0,WNW,8.1,-,N/A,,Clear,290,2014-02-10 02:53:00
9:53 PM,-11.9,-18.0,74,30.54,10.0,NNW,13.8,-,N/A,,Clear,330,2014-02-10 03:53:00
10:53 PM,-14.1,-20.0,75,30.54,10.0,NW,10.4,-,N/A,,Clear,320,2014-02-10 04:53:00
11:53 PM,-14.1,-18.0,82,30.53,10.0,NW,5.8,-,N/A,,Clear,320,2014-02-10 05:53:00